Regional Weather Roundup
Issued by NWS Kansas City/Pleasant Hill, MO

Home | Current Version | Previous Version | Graphics & Text | Print | Product List | Glossary Off
Versions: 1 2 3 4 5 6 7 8 9 10 11 12 13 14 15 16 17 18 19 20 21 22 23 24 25 26 27 28 29 30 31 32 33 34 35 36 37 38 39 40 41 42 43 44 45 46 47 48 49 50

000
ASUS43 KEAX 201904
RWREAX

WEATHER ROUNDUP FOR EASTERN KANSAS AND NORTHWEST MISSOURI
NATIONAL WEATHER SERVICE KANSAS CITY/PLEASANT HILL MO
200 PM CDT MON OCT 20 2014

KSZ040-057-103>105-MOZ028-029-037-043-202000-
...KANSAS CITY METROPOLITAN AREA...

CITY           SKY/WX    TMP DP  RH WIND       PRES   REMARKS
K.C. INTL      SUNNY     72  48  42 NE5       30.05F
K.C. DOWNTOWN  SUNNY     74  48  39 N6        30.03F
LEES SUMMIT    SUNNY     72  47  40 VRB3      30.05F
OLATHE - IXD   SUNNY     72  51  47 N8        30.05F
OLATHE - OJC   SUNNY     72  49  44 VRB7      30.04F
LAWRENCE       SUNNY     72  49  44 CALM      30.05F

$$

MOZ001>008-011>017-020>025-030>033-038>040-044>046-053-054-202000-
...NORTHERN AND CENTRAL MISSOURI...

CITY           SKY/WX    TMP DP  RH WIND       PRES   REMARKS
ST. JOSEPH     SUNNY     73  43  33 CALM      30.05F
MOSBY          CLEAR     70  41  35 N3        30.04F
WHITEMAN AFB   SUNNY     72  47  41 VRB5      30.02F
CLINTON        SUNNY     72  55  56 NW7       30.03F HAZE
SEDALIA        SUNNY     74  47  38 N6        30.03F
WARSAW         NOT AVBL
MARSHALL       SUNNY     73  46  38 N5        30.03F HAZE
CHILLICOTHE      N/A     72  44  36 N5        30.04F
MOBERLY        SUNNY     73  39  29 NW9       30.02F
KIRKSVILLE     SUNNY     70  47  43 N8        30.02F

$$

MOZ041-047>049-056>058-063>065-088>090-097-202000-
...EASTERN AND SOUTHERN MISSOURI...

CITY           SKY/WX    TMP DP  RH WIND       PRES   REMARKS
ST. LOUIS INTL SUNNY     73  50  44 W10G20    29.96F
SPIRIT OF STL  SUNNY     73  49  42 NW10      29.95F
COLUMBIA       SUNNY     72  49  44 NW6       30.01F
JEFFERSON CITY SUNNY     74  47  38 W7        29.99F
MEXICO         SUNNY     73  50  43 W6        30.00F
ROLLA          SUNNY     71  54  54 NW8       29.99F
LEBANON        SUNNY     73  54  49 W6        30.01F
OSAGE BEACH    SUNNY     72  55  56 NW6       30.01F
SPRINGFIELD    SUNNY     72  56  57 VRB5      30.03F
BRANSON        PTSUNNY   72  57  60 NW3       30.06F
NEVADA         SUNNY     73  57  56 CALM      30.04S
JOPLIN         SUNNY     72  57  59 NW6       30.04F
WEST PLAINS      N/A     71  55  56 MISG      30.02F

$$

IAZ060-094-KSZ022-034>040-054-083-096-NEZ052-066-093-202000-
...KANSAS...SOUTHEAST NEBRASKA AND IOWA...

CITY           SKY/WX    TMP DP  RH WIND       PRES   REMARKS
TOPEKA         SUNNY     74  50  42 NE5       30.05F
MANHATTAN      SUNNY     76  48  37 NE6       30.06F
EMPORIA        SUNNY     76  50  40 VRB7      30.04F
CHANUTE        SUNNY     75  57  53 NE5       30.03F
WICHITA        SUNNY     79  49  34 NE8       30.04F
OMAHA          SUNNY     70  37  29 VRB7      30.07F
LINCOLN        SUNNY     72  38  29 NE3       30.09F
FALLS CITY     SUNNY     73  41  31 NW9       30.05F
LAMONI         SUNNY     69  45  41 N8        30.04F
DES MOINES     SUNNY     70  41  34 NW13      30.01F

$$




USA.gov is the U.S. government's official web portal to all federal, state and local government web resources and services.